Date String (YYYY-MM-DD hh:mm:ss) UTC,Instrument flags,Ambient pressure (hPa),Sample flow (lpm),Bypass flow (lpm),Sample temperature (°C),Ambient temperature (°C),ASC tube jacket temperature (°C),LED temperature (°C),Box temperature (°C),Sample RH (%),Span deviation,Mass concentration (μg/m³),Mass concentration (μg/m³),Mass concentration (μg/m³)
DateTimeUTC,F1_M11,P_M11,Q1_M11,Q2_M11,T1_M11,T2_M11,T3_M11,T4_M11,T5_M11,U1_M11,ZSPAN_M11,X0_M11,X2_M11,X1_M11
2023-05-06 14:00:00,,0826.7,4.99,0.00,26.7,24.6,00.0,35.2,28.2,14.6,0000.0,0003.88,0001.53,0000.85
2023-05-06 14:01:00,,0826.7,5.00,0.00,26.7,24.6,00.0,35.2,28.2,14.6,0000.0,0003.88,0001.50,0000.82
2023-05-06 14:02:00,,0826.8,5.01,0.00,26.7,24.6,00.0,35.2,28.2,14.7,0000.0,0003.83,0001.45,0000.80
2023-05-06 14:03:00,,0826.8,5.01,0.00,26.7,24.6,00.0,35.1,28.2,14.8,0000.0,0003.85,0001.40,0000.79
2023-05-06 14:04:00,,0826.9,4.98,0.00,26.6,24.6,00.0,35.1,28.1,15.3,0000.0,0003.64,0001.33,0000.76
2023-05-06 14:05:00,,0826.9,4.99,0.00,26.6,24.6,00.0,35.1,28.1,15.0,0000.0,0003.38,0001.26,0000.76
2023-05-06 14:06:00,,0826.8,5.01,0.00,26.6,24.6,00.0,35.1,28.0,15.1,0000.0,0002.97,0001.21,0000.76
2023-05-06 14:07:00,,0826.9,5.00,0.00,26.6,24.5,00.0,35.1,28.1,15.2,0000.0,0002.84,0001.22,0000.77
2023-05-06 14:08:00,,0826.9,5.00,0.00,26.6,24.5,00.0,35.1,28.1,15.2,0000.0,0003.02,0001.30,0000.78
2023-05-06 14:09:00,,0826.9,5.00,0.00,26.5,24.5,00.0,35.0,28.0,15.1,0000.0,0003.05,0001.31,0000.79
2023-05-06 14:10:00,,0826.9,5.00,0.00,26.5,24.5,00.0,35.0,28.0,15.0,0000.0,0003.03,0001.32,0000.79
2023-05-06 14:11:00,,0826.9,5.01,0.00,26.5,24.5,00.0,35.0,28.0,15.2,0000.0,0003.10,0001.36,0000.81
2023-05-06 14:12:00,,0826.9,5.01,0.00,26.5,24.5,00.0,35.0,28.0,15.1,0000.0,0003.11,0001.37,0000.82
2023-05-06 14:13:00,,0826.9,5.00,0.00,26.5,24.5,00.0,35.0,28.0,15.4,0000.0,0003.37,0001.41,0000.83
2023-05-06 14:14:00,,0827.0,4.99,0.00,26.5,24.5,00.0,35.0,28.0,15.0,0000.0,0003.09,0001.41,0000.84
2023-05-06 14:15:00,,0827.0,5.01,0.00,26.5,24.5,00.0,34.9,28.0,14.8,0000.0,0003.07,0001.43,0000.84
2023-05-06 14:16:00,,0826.9,5.00,0.00,26.4,24.6,00.0,34.9,28.0,14.9,0000.0,0003.11,0001.46,0000.84
2023-05-06 14:17:00,,0826.9,5.00,0.00,26.4,24.6,00.0,34.9,28.0,14.3,0000.0,0003.00,0001.44,0000.85
2023-05-06 14:18:00,,0826.9,4.99,0.00,26.4,24.6,00.0,34.9,28.0,14.5,0000.0,0002.99,0001.45,0000.86
2023-05-06 14:19:00,,0826.9,5.00,0.00,26.4,24.6,00.0,34.9,28.0,14.5,0000.0,0002.95,0001.43,0000.87
2023-05-06 14:20:00,,0826.9,5.00,0.00,26.4,24.6,00.0,34.9,28.0,14.2,0000.0,0002.95,0001.43,0000.89
2023-05-06 14:21:00,,0826.9,5.00,0.00,26.4,24.6,00.0,34.9,28.0,14.0,0000.0,0002.97,0001.45,0000.92
2023-05-06 14:22:00,,0826.9,5.00,0.00,26.4,24.6,00.0,34.8,28.0,13.6,0000.0,0002.98,0001.47,0000.95
2023-05-06 14:23:00,,0826.9,5.01,0.00,26.4,24.6,00.0,34.8,28.0,13.7,0000.0,0002.88,0001.46,0000.97
2023-05-06 14:24:00,,0826.9,5.00,0.00,26.4,24.6,00.0,34.8,27.9,13.7,0000.0,0002.66,0001.44,0001.00
2023-05-06 14:25:00,,0826.9,5.00,0.00,26.4,24.6,00.0,34.8,27.9,13.9,0000.0,0002.39,0001.45,0001.03
2023-05-06 14:26:00,,0826.9,5.00,0.00,26.4,24.6,00.0,34.8,27.9,14.3,0000.0,0002.50,0001.51,0001.08
2023-05-06 14:27:00,,0826.9,5.00,0.00,26.4,24.6,00.0,34.8,27.9,14.2,0000.0,0002.73,0001.61,0001.13
2023-05-06 14:28:00,,0826.9,5.00,0.00,26.4,24.6,00.0,34.8,27.9,13.9,0000.0,0002.88,0001.66,0001.15
2023-05-06 14:29:00,,0826.8,5.00,0.00,26.4,24.6,00.0,34.8,27.9,14.1,0000.0,0002.99,0001.72,0001.18
2023-05-06 14:30:00,,0826.8,5.00,0.00,26.4,24.6,00.0,34.8,27.9,14.1,0000.0,0003.03,0001.76,0001.20
2023-05-06 14:31:00,,0826.8,5.00,0.00,26.4,24.5,00.0,34.8,27.9,14.0,0000.0,0003.07,0001.79,0001.22
2023-05-06 14:32:00,,0826.9,5.00,0.00,26.4,24.6,00.0,34.8,27.9,14.0,0000.0,0003.08,0001.79,0001.23
2023-05-06 14:33:00,,0826.9,5.00,0.00,26.3,24.6,00.0,34.8,27.9,13.9,0000.0,0003.09,0001.80,0001.22
2023-05-06 14:34:00,,0826.9,5.00,0.00,26.3,24.6,00.0,34.7,27.9,13.6,0000.0,0003.22,0001.86,0001.24
2023-05-06 14:35:00,,0826.8,5.00,0.00,26.3,24.6,00.0,34.8,27.9,13.8,0000.0,0003.14,0001.86,0001.23
2023-05-06 14:36:00,,0826.8,5.00,0.00,26.3,24.6,00.0,34.7,27.9,13.7,0000.0,0003.13,0001.88,0001.22
2023-05-06 14:37:00,,0826.8,5.00,0.00,26.3,24.6,00.0,34.7,27.9,13.8,0000.0,0003.22,0001.85,0001.22
2023-05-06 14:38:00,,0826.9,5.00,0.00,26.3,24.6,00.0,34.7,27.9,14.0,0000.0,0003.11,0001.78,0001.20
2023-05-06 14:39:00,,0826.9,4.99,0.00,26.3,24.6,00.0,34.7,27.9,13.8,0000.0,0002.92,0001.73,0001.18
2023-05-06 14:40:00,,0826.9,4.98,0.00,26.3,24.6,00.0,34.7,27.9,13.7,0000.0,0002.90,0001.73,0001.18
2023-05-06 14:41:00,,0826.9,5.00,0.00,26.3,24.6,00.0,34.7,27.9,13.6,0000.0,0003.01,0001.75,0001.19
2023-05-06 14:42:00,,0826.9,5.01,0.00,26.3,24.6,00.0,34.7,27.9,13.5,0000.0,0002.97,0001.74,0001.19
2023-05-06 14:43:00,,0826.9,5.00,0.00,26.3,24.7,00.0,34.7,27.9,13.4,0000.0,0003.01,0001.75,0001.20
2023-05-06 14:44:00,,0826.9,5.00,0.00,26.3,24.7,00.0,34.7,27.9,13.3,0000.0,0003.15,0001.80,0001.21
2023-05-06 14:45:00,,0826.9,5.01,0.00,26.3,24.7,00.0,34.7,28.0,13.0,0000.0,0003.08,0001.78,0001.21
2023-05-06 14:46:00,,0826.9,4.99,0.00,26.4,24.7,00.0,34.7,28.0,13.3,0000.0,0003.27,0001.85,0001.22
2023-05-06 14:47:00,,0827.0,5.00,0.00,26.4,24.8,00.0,34.7,28.0,13.2,0000.0,0003.44,0001.87,0001.24
2023-05-06 14:48:00,,0827.0,5.02,0.00,26.4,24.8,00.0,34.7,28.0,12.9,0000.0,0003.52,0001.95,0001.26
2023-05-06 14:49:00,,0826.9,5.00,0.00,26.4,24.8,00.0,34.7,28.0,12.8,0000.0,0003.61,0002.01,0001.27
2023-05-06 14:50:00,,0826.9,4.98,0.00,26.4,24.8,00.0,34.7,28.0,13.1,0000.0,0003.81,0002.05,0001.28
2023-05-06 14:51:00,,0826.9,5.00,0.00,26.4,24.8,00.0,34.7,28.0,13.0,0000.0,0004.05,0002.12,0001.29
2023-05-06 14:52:00,,0827.0,5.00,0.00,26.4,24.8,00.0,34.7,28.1,13.1,0000.0,0003.93,0002.09,0001.29
2023-05-06 14:53:00,,0827.0,5.01,0.00,26.4,24.9,00.0,34.7,28.1,12.9,0000.0,0004.08,0002.10,0001.29
2023-05-06 14:54:00,,0826.9,5.01,0.00,26.4,24.9,00.0,34.7,28.1,13.1,0000.0,0004.16,0002.13,0001.30
2023-05-06 14:55:00,,0826.9,5.00,0.00,26.4,24.9,00.0,34.7,28.1,13.2,0000.0,0004.19,0002.12,0001.29
2023-05-06 14:56:00,,0826.9,4.99,0.00,26.4,24.9,00.0,34.8,28.1,13.2,0000.0,0004.23,0002.11,0001.28
2023-05-06 14:57:00,,0827.0,4.99,0.00,26.5,24.9,00.0,34.8,28.1,13.1,0000.0,0004.08,0002.05,0001.28
2023-05-06 14:58:00,,0826.9,5.00,0.00,26.5,24.9,00.0,34.8,28.1,13.2,0000.0,0004.02,0002.02,0001.27
2023-05-06 14:59:00,,0826.9,5.00,0.00,26.5,24.9,00.0,34.8,28.1,13.5,0000.0,0003.93,0001.98,0001.26
